Temperature
18 18 18 19 19 19 19 19 19 19 19 18 19 18 18 18 18 18 18 18 18 18 18 18 18 18 18 18 18 18 18 18 17 17 17 17 17 17 17 17 17 17 17
19 18 19 19 19 19 19 19 19 19 19 19 19 18 18 18 18 18 18 18 18 18 18 18 18 18 18 18 18 18 18 18 17 17 17 17 17 17 17 17 17 17 17
19 19 19 19 19 19 19 19 19 19 19 19 19 18 18 18 18 18 18 18 18 18 18 18 18 18 18 18 18 18 18 18 17 17 17 17 17 17 17 17 17 17 17
19 19 19 19 19 19 19 19 19 19 19 19 19 18 18 18 18 18 18 18 18 18 18 18 18 18 18 18 18 17 17 17 17 17 17 17 17 17 17 17 17 17 17
19 19 19 19 19 19 19 19 19 19 19 19 18 18 18 18 18 18 18 18 18 18 18 18 18 18 18 18 18 17 17 17 17 17 17 17 17 17 17 17 17 17 17
19 19 19 19 19 19 19 19 19 19 19 19 18 18 18 18 18 18 18 18 18 18 18 18 18 18 18 17 17 17 17 17 17 17 17 17 17 17 17 17 17 17 17
19 19 19 19 19 19 19 19 19 19 19 19 18 18 18 18 18 18 18 18 18 18 18 18 18 17 18 17 17 17 17 17 17 17 17 17 17 17 17 17 17 17 17
20 19 19 19 19 19 19 19 19 19 19 18 18 18 18 18 18 18 18 18 18 18 18 18 18 18 18 17 17 17 17 17 17 17 17 17 17 17 17 17 17 17 17
19 19 19 19 19 19 19 19 19 19 19 19 18 18 18 18 18 18 18 18 18 18 18 18 18 18 17 17 17 17 17 17 17 17 17 17 17 17 17 17 17 17 17
19 19 19 19 19 19 19 19 19 19 19 19 18 18 18 18 18 18 18 18 18 18 18 18 18 17 17 17 17 17 17 17 17 17 17 17 17 17 17 17 17 17 17
19 20 19 19 19 19 19 19 19 19 19 19 19 18 18 18 18 18 18 18 18 18 18 18 17 17 17 17 17 17 17 17 17 17 17 17 17 17 17 17 17 17 17
20 20 20 20 19 19 19 19 19 19 19 19 19 18 18 18 18 18 18 18 18 18 18 18 18 17 17 17 17 17 18 18 18 18 17 17 17 17 17 17 17 17 17
20 20 20 20 19 19 19 19 19 19 19 19 19 18 18 18 18 18 18 18 18 18 18 18 18 18 18 18 17 17 17 18 18 18 17 17 17 17 17 17 17 17 17
20 20 20 20 19 19 19 19 19 19 19 19 19 18 18 18 18 18 18 18 18 18 18 18 18 18 18 18 18 18 17 17 18 18 18 17 17 17 17 17 17 17 17
20 20 20 20 19 19 19 19 19 19 19 18 18 18 18 18 18 18 18 18 18 18 18 18 18 18 18 18 18 18 18 18 18 18 18 17 17 17 17 17 17 17 17
20 20 20 20 20 19 19 19 19 19 19 18 18 18 18 18 18 18 18 18 18 18 18 18 18 18 18 18 18 18 18 17 17 18 18 17 17 17 17 17 17 17 17
21 20 20 20 20 19 19 19 19 19 19 19 18 18 18 18 18 18 18 18 18 18 18 18 18 18 18 18 18 18 18 17 17 17 17 17 17 17 17 17 17 17 17
21 21 20 20 20 19 19 19 19 19 19 18 18 18 18 18 18 18 18 18 18 18 18 18 18 18 18 18 18 18 18 18 17 17 17 17 17 17 17 17 17 17 17
21 21 20 20 20 20 19 19 19 19 19 18 18 18 18 18 18 18 18 18 18 18 18 18 18 18 18 18 18 18 18 18 18 18 18 17 17 17 17 17 17 17 17
21 21 21 20 20 20 19 19 19 19 19 19 18 18 18 18 18 18 18 18 18 18 18 18 18 18 18 18 18 18 18 18 18 18 18 18 18 17 17 17 17 17 17
21 21 21 20 20 20 19 19 19 19 19 19 19 18 18 18 18 18 18 18 18 18 18 18 17 17 18 17 17 17 18 18 18 18 18 18 18 18 18 17 17 17 17
22 21 21 20 20 20 20 19 19 19 19 19 19 19 18 18 18 18 18 18 18 18 17 17 17 17 18 17 17 17 17 18 18 18 18 18 18 18 18 18 18 17 17
22 21 21 21 20 20 19 19 19 19 19 19 19 19 18 18 18 18 18 17 17 17 17 17 17 17 17 17 17 17 17 17 18 18 18 18 18 18 18 18 18 18 17
22 22 21 21 20 20 20 19 19 19 19 19 19 19 18 18 18 18 18 17 17 17 17 17 17 17 17 17 17 17 17 17 17 17 17 18 18 18 18 18 18 18 17
23 22 21 21 21 20 20 19 19 19 19 19 18 18 18 18 18 18 18 18 17 17 17 17 17 17 17 17 17 17 17 17 17 17 17 17 17 18 18 17 17 17 17
23 22 22 21 21 20 20 19 19 19 19 19 19 18 18 18 18 18 18 17 17 17 17 17 17 17 17 17 17 17 17 17 17 17 16 17 17 17 17 17 17 17 17
Wind_Speed
2 4 9 11 13 14 15 16 16 16 17 17 17 17 17 17 17 17 17 17 17 17 17 17 17 17 17 17 18 18 18 17 17 18 18 17 17 17 17 18 17 15 17
5 7 10 12 13 13 14 15 15 15 16 16 16 16 17 17 17 17 17 17 17 17 17 17 17 17 17 17 18 18 17 17 17 17 17 17 17 16 17 17 16 14 17
6 8 11 12 12 13 14 14 14 14 15 15 15 15 15 15 16 16 16 16 16 16 16 16 16 16 16 17 17 17 16 16 16 16 16 14 15 16 16 16 16 16 16
8 8 10 12 12 12 13 13 13 14 14 14 14 14 14 14 15 15 15 15 15 16 16 15 15 16 16 16 16 15 15 15 15 15 12 12 12 15 15 15 15 15 15
7 8 10 12 12 12 12 12 12 12 13 13 13 13 13 13 14 14 14 14 14 14 14 14 14 14 15 15 15 14 14 14 14 12 11 11 11 14 15 15 14 14 14
6 8 10 11 11 11 11 11 11 11 12 12 12 12 12 12 12 13 13 13 13 13 14 14 14 14 14 14 13 13 13 13 11 10 10 10 10 13 14 14 13 13 13
6 7 9 11 11 11 10 10 10 10 11 11 11 11 11 11 11 11 11 12 12 12 13 12 12 12 12 12 12 12 12 11 10 9 9 9 10 12 13 13 13 13 12
6 6 8 10 10 10 9 9 9 9 9 10 10 10 10 10 10 10 10 10 11 11 11 11 11 11 11 11 10 10 10 10 9 9 8 8 10 11 12 12 12 12 11
5 5 5 7 8 9 9 8 8 8 8 8 8 8 9 9 8 8 8 9 9 9 10 9 9 9 9 9 8 8 8 9 9 8 8 7 9 10 10 11 11 11 11
4 3 3 5 6 6 6 7 7 7 7 7 7 7 7 7 7 7 7 7 8 8 8 8 8 7 7 7 6 6 7 8 8 7 6 7 9 10 10 10 10 10 10
5 3 3 3 4 5 5 6 6 6 6 6 5 6 6 5 5 5 5 6 6 6 6 6 6 5 5 5 4 5 6 6 6 6 6 8 9 10 10 10 9 9 9
7 5 3 3 4 4 4 4 3 3 4 3 3 4 4 4 3 3 3 3 4 4 4 4 4 3 3 3 2 3 4 5 5 5 6 8 9 10 10 10 10 10 9
7 6 5 4 5 4 2 3 3 2 3 3 3 3 3 2 1 1 2 2 1 1 2 2 2 2 2 1 1 2 3 4 4 5 7 9 9 10 11 11 11 10 10
6 7 6 5 4 4 4 3 3 3 2 2 3 4 3 1 0 0 1 1 1 0 1 1 1 1 0 1 2 2 3 4 5 5 7 9 10 11 12 12 11 11 11
7 7 6 6 6 5 4 3 3 4 4 4 4 5 5 3 2 2 2 2 2 2 1 1 1 1 1 2 2 3 4 4 5 6 7 10 11 12 12 12 12 12 12
9 8 7 7 6 5 4 4 3 5 5 5 6 7 7 6 4 3 3 3 4 4 3 3 2 2 2 2 2 3 4 5 6 8 8 9 12 13 13 14 14 14 14
9 8 8 7 6 6 5 5 5 5 5 5 6 8 8 8 7 5 3 3 5 5 4 3 2 2 2 2 3 3 4 6 7 8 9 9 10 13 14 15 15 15 15
9 9 9 8 7 7 6 5 5 5 5 5 6 7 9 9 9 7 4 5 6 5 3 2 2 2 3 3 3 3 3 5 7 8 9 9 9 10 13 16 17 17 17
10 9 8 8 8 7 6 4 4 4 4 6 6 6 7 9 9 8 5 6 6 4 3 3 3 3 3 4 4 4 4 5 6 7 8 10 10 11 11 13 17 18 18
9 8 8 7 7 6 4 2 2 2 2 4 5 6 6 7 8 7 5 6 5 3 3 3 3 3 3 3 3 4 4 5 5 6 7 8 10 12 12 12 12 14 17
7 8 8 7 7 5 3 3 3 3 2 2 3 5 5 5 5 5 4 4 4 4 5 4 3 3 3 2 1 2 3 3 5 5 6 6 8 10 11 12 11 11 11
8 8 8 7 7 6 4 3 2 2 2 2 1 2 4 5 5 5 4 4 4 4 4 4 4 3 3 3 3 1 2 3 2 4 4 5 7 7 8 10 10 11 12
8 9 8 7 6 6 5 3 2 1 1 0 1 2 2 4 4 4 4 4 4 4 5 5 5 5 4 3 3 3 3 3 2 2 2 3 4 4 5 7 9 10 11
9 8 7 7 6 6 6 5 4 3 3 3 2 2 2 3 3 5 5 5 4 4 5 5 5 5 4 4 3 3 3 3 2 2 2 1 2 3 4 5 6 7 9
8 7 6 6 6 6 6 6 5 4 3 2 1 2 3 3 3 4 4 4 4 4 5 5 4 5 5 5 4 3 3 2 3 3 3 2 2 2 3 3 4 4 6
7 7 7 7 6 5 6 5 5 5 4 2 2 2 3 2 3 3 3 3 3 3 4 4 4 4 4 4 4 3 3 2 3 4 4 3 3 3 2 2 2 3 3
Wind_Direction
125 127 115 107 101 97 95 95 96 97 97 97 97 99 99 100 100 101 102 101 99 100 100 101 102 103 104 104 106 106 106 107 109 110 109 110 109 109 109 108 107 108 110
138 134 121 113 107 103 100 98 98 98 98 98 98 99 99 100 100 100 101 100 101 102 103 102 102 103 104 105 106 107 106 107 109 110 110 110 109 109 110 110 110 112 112
123 126 123 118 112 107 104 102 100 100 100 100 100 100 101 100 99 99 100 101 102 103 104 103 103 103 105 106 107 108 108 107 108 108 107 107 110 111 112 113 113 112 113
124 124 128 123 117 113 108 105 104 103 103 103 102 102 101 101 101 100 100 100 102 104 104 104 105 106 107 107 108 110 110 108 107 105 103 108 113 116 115 115 115 115 115
120 128 134 127 121 116 112 109 107 106 104 105 104 104 103 102 101 100 100 100 102 104 104 104 106 108 109 109 110 111 113 112 109 105 103 105 112 121 120 119 120 120 120
120 132 138 131 126 121 116 113 110 109 107 106 105 104 105 104 103 103 102 102 103 104 105 105 106 108 110 112 113 114 116 115 110 109 109 111 118 125 124 124 124 123 122
126 136 142 136 132 126 122 117 114 111 109 108 108 106 105 105 106 106 106 106 107 107 107 107 107 107 110 113 115 119 122 121 117 118 119 121 127 129 128 128 128 128 126
129 134 144 142 138 133 129 125 121 116 113 111 111 110 109 108 108 108 109 109 108 110 110 110 109 109 113 115 116 121 125 128 125 128 130 132 136 137 136 135 134 134 134
122 123 130 140 140 140 139 134 130 124 120 119 117 114 114 113 113 111 112 114 114 114 113 113 114 114 115 117 116 119 126 128 128 133 139 142 145 145 143 143 142 142 141
120 123 125 127 133 139 148 147 142 137 133 131 128 123 118 112 111 113 114 118 120 119 119 117 117 117 118 119 119 119 124 128 134 144 148 154 157 158 156 152 151 151 151
163 156 144 136 139 147 157 163 157 152 147 138 133 128 111 93 89 96 110 119 122 123 122 119 115 114 119 119 120 122 119 131 145 155 163 169 171 172 170 167 164 162 161
186 187 174 168 165 166 175 158 149 145 139 127 122 119 114 106 95 96 105 123 131 130 127 121 118 109 110 110 112 121 130 146 157 171 183 184 184 183 181 180 179 176 174
189 192 187 186 186 184 179 154 155 148 144 150 160 159 144 127 91 53 45 36 53 90 84 80 79 86 127 156 138 143 163 169 179 189 196 198 198 195 193 191 190 188 186
185 201 195 189 192 198 193 184 180 175 178 194 203 197 180 168 204 315 328 318 339 16 67 30 16 348 264 232 203 200 204 203 198 203 208 208 206 203 202 202 200 199 197
194 204 201 193 197 198 196 206 200 202 206 219 225 218 206 196 206 209 237 241 246 243 235 254 261 267 279 266 234 219 222 218 210 212 215 214 211 210 210 209 209 208 207
200 207 201 199 199 194 200 210 214 214 216 220 227 224 215 212 210 213 228 242 246 242 240 242 240 241 261 260 255 237 231 224 219 217 221 221 219 217 218 217 216 216 216
197 201 199 202 198 198 209 218 222 219 216 223 231 226 218 215 212 211 217 234 241 240 241 248 255 250 251 251 256 246 235 230 227 226 225 224 226 225 224 224 223 222 223
192 196 200 202 195 201 210 217 219 217 214 226 233 229 223 221 217 212 216 231 235 225 220 222 234 246 256 248 249 249 240 238 237 234 231 229 229 232 233 232 230 229 229
193 194 193 195 192 195 204 209 213 215 218 225 228 227 223 222 220 214 220 230 225 215 214 224 214 214 241 248 249 250 246 241 242 241 236 233 231 232 236 240 238 235 234
191 189 190 191 192 185 181 180 194 215 231 229 226 228 226 222 219 215 223 229 220 216 222 220 221 215 225 236 257 263 258 249 244 242 242 240 236 236 236 238 241 244 242
184 184 186 185 186 171 166 177 186 216 223 227 228 230 232 227 218 213 232 232 221 222 224 218 215 221 231 205 208 288 289 258 245 243 240 239 239 237 235 235 236 239 247
189 191 186 187 184 184 185 175 178 181 203 220 236 245 238 230 222 221 221 234 230 227 234 227 214 214 224 189 179 190 304 316 283 248 236 235 240 236 236 236 232 234 238
193 193 193 188 186 187 180 156 124 89 43 10 276 270 264 249 236 230 231 233 232 225 231 229 217 213 225 217 194 179 194 237 289 301 257 242 240 234 239 240 236 235 234
197 185 182 180 183 183 173 173 175 185 219 230 230 252 277 260 245 236 236 234 236 233 234 236 222 216 212 225 217 217 214 187 203 293 312 294 267 250 247 247 247 241 235
183 175 178 177 185 187 183 182 181 198 217 225 245 273 281 282 267 253 245 241 239 238 236 236 227 218 215 216 212 207 217 216 211 223 270 292 305 278 262 254 251 253 248
167 172 178 181 190 179 176 178 183 194 197 210 257 278 286 288 287 279 267 253 248 244 238 233 225 223 224 222 219 207 197 201 206 211 236 259 278 285 288 280 269 263 255
Height
1529 1529 1530 1530 1531 1531 1531 1531 1532 1532 1532 1533 1533 1533 1534 1534 1535 1536 1537 1537 1538 1539 1540 1541 1542 1543 1545 1546 1547 1548 1549 1550 1551 1552 1553 1554 1555 1557 1558 1559 1560 1562 1563
1530 1531 1532 1533 1533 1533 1534 1534 1535 1535 1535 1536 1536 1536 1537 1538 1538 1539 1540 1540 1541 1542 1543 1544 1545 1546 1547 1548 1549 1550 1551 1553 1554 1555 1556 1557 1558 1559 1561 1562 1563 1564 1566
1531 1533 1534 1535 1535 1536 1536 1537 1537 1538 1538 1539 1539 1540 1540 1541 1542 1542 1543 1544 1544 1545 1546 1547 1548 1549 1550 1551 1552 1553 1554 1555 1556 1557 1558 1559 1561 1562 1563 1564 1565 1567 1568
1533 1534 1536 1537 1538 1538 1539 1540 1540 1540 1541 1542 1542 1543 1543 1544 1545 1545 1546 1547 1547 1548 1549 1550 1551 1552 1553 1553 1555 1556 1557 1558 1559 1560 1561 1562 1563 1564 1566 1567 1568 1569 1570
1535 1537 1538 1539 1540 1541 1542 1542 1543 1543 1544 1544 1545 1545 1546 1547 1547 1548 1549 1549 1550 1551 1552 1553 1553 1554 1555 1556 1557 1558 1559 1560 1561 1562 1563 1564 1565 1567 1568 1569 1570 1571 1572
1537 1539 1540 1541 1542 1543 1544 1545 1545 1546 1546 1547 1547 1548 1549 1549 1550 1551 1551 1552 1553 1554 1554 1555 1556 1557 1558 1559 1560 1561 1561 1562 1563 1564 1565 1566 1567 1569 1570 1571 1572 1573 1574
1539 1541 1542 1544 1544 1545 1546 1547 1548 1548 1549 1549 1550 1550 1551 1552 1553 1553 1554 1555 1555 1556 1557 1558 1558 1559 1560 1561 1562 1563 1564 1565 1566 1567 1567 1568 1569 1570 1571 1572 1573 1574 1575
1541 1543 1544 1546 1547 1548 1548 1549 1550 1551 1551 1552 1552 1553 1553 1554 1555 1555 1556 1557 1558 1558 1559 1560 1561 1562 1563 1563 1564 1565 1566 1567 1567 1568 1569 1570 1571 1572 1573 1574 1575 1576 1577
1543 1545 1546 1547 1548 1549 1550 1551 1552 1553 1553 1554 1554 1555 1556 1556 1557 1557 1558 1559 1560 1561 1561 1562 1563 1564 1565 1566 1567 1567 1568 1568 1569 1570 1571 1571 1572 1573 1574 1575 1576 1577 1578
1545 1546 1548 1549 1550 1551 1552 1553 1554 1554 1555 1556 1556 1557 1558 1558 1559 1560 1560 1561 1562 1563 1563 1564 1565 1566 1567 1568 1568 1569 1570 1570 1571 1571 1572 1573 1573 1574 1575 1576 1577 1578 1579
1546 1547 1549 1550 1551 1552 1553 1554 1555 1556 1557 1558 1558 1559 1559 1560 1561 1561 1562 1563 1564 1564 1565 1566 1567 1568 1568 1569 1570 1570 1571 1571 1572 1572 1573 1574 1574 1575 1576 1577 1578 1579 1580
1546 1548 1550 1551 1552 1553 1555 1556 1557 1558 1558 1559 1560 1561 1561 1562 1563 1563 1564 1564 1565 1566 1567 1567 1568 1569 1570 1570 1571 1572 1572 1572 1573 1573 1574 1574 1575 1576 1576 1577 1578 1579 1580
1547 1549 1551 1552 1553 1555 1556 1557 1558 1559 1560 1561 1561 1562 1563 1564 1564 1565 1566 1566 1567 1567 1568 1568 1569 1570 1571 1571 1572 1573 1573 1573 1574 1574 1575 1575 1575 1576 1577 1577 1578 1579 1580
1548 1550 1552 1553 1554 1556 1557 1558 1559 1560 1561 1562 1563 1563 1564 1565 1566 1566 1567 1567 1568 1568 1569 1569 1570 1571 1571 1572 1573 1573 1573 1574 1574 1575 1575 1575 1575 1576 1576 1577 1578 1578 1579
1549 1550 1552 1553 1555 1556 1558 1559 1560 1561 1562 1563 1564 1564 1565 1566 1566 1567 1568 1568 1568 1569 1569 1570 1571 1571 1572 1572 1573 1573 1574 1574 1574 1575 1575 1575 1575 1576 1576 1577 1577 1578 1579
1549 1551 1552 1554 1555 1557 1558 1559 1560 1562 1563 1564 1564 1565 1565 1566 1567 1567 1567 1568 1569 1569 1570 1570 1571 1571 1572 1572 1573 1573 1573 1573 1574 1574 1574 1575 1575 1575 1576 1576 1577 1577 1578
1549 1551 1552 1554 1556 1557 1558 1559 1560 1562 1563 1564 1564 1565 1565 1566 1566 1567 1567 1567 1568 1569 1569 1570 1570 1571 1571 1571 1572 1572 1573 1573 1573 1573 1573 1574 1574 1574 1575 1575 1576 1576 1577
1548 1550 1552 1554 1555 1556 1558 1559 1560 1561 1562 1563 1563 1564 1564 1565 1565 1566 1566 1566 1567 1568 1568 1568 1569 1569 1570 1570 1571 1571 1571 1572 1572 1572 1572 1572 1573 1573 1573 1574 1574 1575 1575
1548 1549 1551 1553 1554 1556 1557 1559 1560 1560 1561 1562 1562 1563 1563 1564 1564 1564 1565 1565 1566 1566 1566 1567 1567 1568 1568 1569 1569 1569 1570 1570 1570 1570 1570 1570 1570 1571 1571 1572 1572 1573 1573
1547 1548 1550 1552 1553 1555 1556 1557 1558 1559 1560 1560 1561 1561 1562 1562 1562 1563 1563 1563 1563 1564 1564 1564 1565 1566 1566 1567 1567 1567 1567 1567 1567 1567 1567 1568 1568 1568 1569 1569 1570 1570 1571
1545 1547 1549 1550 1552 1553 1554 1555 1556 1557 1558 1559 1559 1560 1560 1560 1560 1561 1560 1561 1561 1561 1561 1562 1562 1563 1563 1564 1564 1564 1564 1564 1564 1564 1565 1565 1565 1566 1566 1566 1567 1567 1568
1543 1545 1547 1549 1550 1552 1553 1554 1555 1556 1557 1557 1557 1558 1558 1558 1558 1558 1558 1558 1558 1558 1558 1559 1559 1560 1560 1561 1562 1562 1562 1562 1561 1561 1562 1562 1562 1563 1563 1563 1564 1564 1564
1541 1543 1545 1547 1548 1549 1551 1553 1554 1554 1555 1555 1555 1555 1556 1556 1556 1555 1555 1554 1554 1554 1555 1555 1556 1557 1557 1558 1558 1560 1559 1558 1558 1558 1558 1559 1559 1560 1560 1560 1561 1561 1561
1538 1541 1543 1545 1546 1548 1549 1550 1551 1551 1552 1553 1553 1553 1554 1553 1553 1552 1552 1551 1551 1551 1551 1552 1552 1553 1554 1554 1555 1556 1557 1557 1557 1556 1556 1556 1556 1557 1557 1557 1557 1557 1557
1536 1539 1541 1543 1545 1546 1547 1548 1549 1550 1550 1551 1551 1551 1551 1551 1550 1550 1549 1548 1548 1547 1547 1548 1548 1549 1550 1550 1551 1552 1552 1553 1554 1554 1552 1553 1553 1553 1554 1553 1553 1553 1553
1533 1536 1539 1541 1542 1544 1545 1546 1547 1548 1548 1549 1549 1549 1549 1548 1548 1547 1546 1545 1545 1544 1544 1544 1544 1545 1546 1546 1547 1548 1549 1549 1549 1550 1549 1548 1549 1549 1549 1549 1550 1549 1549